[[{"header":{"parameterUnit":"m.s-1","parameterCategory":1,"la1":30.2992,"la2":30.254,"lo1":-89.0895,"lo2":-89.0443,"dy":0.0025,"dx":0.0025,"nx":19,"ny":19,"refTime":"2026-04-24T09:00:00:Z","depth":0,"parameterNumber":2,"parameterNumberName":"U-component_of_WINDS"},"data":[0,0,0,-4.3674,-4.3677,-4.3795,-4.3795,-4.3963,-4.3965,0,0,0,0,0,0,0,0,0,0,0,-4.3651,-4.3652,-4.3674,-4.3677,-4.3795,-4.3795,-4.3963,-4.3965,0,0,0,0,0,0,0,0,0,0,0,-4.365,-4.3652,-4.3654,-4.3678,-4.3795,-4.3795,-4.3962,-4.3867,0,0,0,0,0,0,0,0,0,0,-4.3749,-4.3739,-4.3651,-4.3654,-4.3678,-4.3795,-4.3795,-4.3862,-4.3873,-4.3917,0,-4.3961,0,-4.3966,-4.3977,-4.3978,0,0,0,-4.3668,-4.373,-4.3752,-4.3654,-4.368,-4.3795,-4.3739,-4.3868,-4.388,-4.3932,-4.3963,-4.3969,-4.3969,-4.3978,-4.3979,-4.4268,-4.427,0,0,-4.3662,-4.3678,-4.3744,-4.3761,-4.3745,-4.3735,-4.3743,-4.3875,-4.391,-4.3964,-4.3972,-4.3971,-4.398,-4.3981,-4.4267,-4.4269,0,0,0,-4.3649,-4.3673,-4.3691,-4.3754,-4.3774,-4.3739,-4.3748,-4.3904,-4.3908,-4.3974,-4.3973,-4.3981,-4.3983,-4.4265,-4.4267,-4.437,0,0,0,-4.3645,-4.3666,-4.3689,-4.37,-4.3772,-4.3841,-4.3774,-4.3899,-4.3914,-4.3972,-4.3981,-4.3985,-4.4263,-4.4266,-4.4363,-4.4416,0,0,0,-4.3639,-4.3665,-4.3686,-4.3701,-4.3752,-4.3838,-4.385,-4.3902,-4.3914,-4.3978,-4.3985,-4.4261,-4.4266,-4.4357,-4.4405,-4.4496,0,0,0,-4.3637,-4.3776,-4.3688,-4.3843,-4.3751,-4.3902,-4.3849,-4.396,-4.4028,-4.3982,-4.4263,-4.4267,-4.4355,-4.4399,-4.4489,-4.4574,-4.4611,0,0,-4.3821,-4.3798,-4.3888,-4.3813,-4.3984,-4.3883,-4.4068,-4.4114,-4.4105,-4.4214,-4.4221,-4.4366,-4.4404,-4.4494,-4.4818,-4.4847,0,0,0,-4.3951,-4.4016,-4.4058,-4.4124,-4.4164,-4.4201,-4.4218,-4.4235,-4.4327,-4.4165,-4.4423,-4.4446,-4.4498,-4.4537,-4.4563,-4.4606,-4.4287,-4.4286,-4.4286,-4.4232,-4.4215,-4.4362,-4.4359,-4.4424,-4.444,-4.4491,-4.4516,-4.4479,-4.454,-4.4572,-4.477,-4.4817,-4.4836,-4.4881,-4.4617,-4.4617,-4.4617,-4.4618,-4.4498,-4.4586,-4.4536,-4.466,-4.464,-4.4744,-4.4766,-4.4736,-4.4829,-4.4745,-4.4789,-4.4697,-4.4869,-4.4908,-4.4625,-4.4624,-4.4623,-4.4622,-4.4622,-4.4679,-4.4718,-4.4738,-4.4832,-4.4907,-4.4899,-4.4991,-4.497,-4.4951,-4.4996,-4.5026,-4.5024,-4.5019,-4.5012,-4.5013,-4.5014,-4.5014,-4.5015,-4.5015,-4.4857,-4.4877,-4.4958,-4.5013,-4.5053,-4.5103,-4.5122,-4.5161,-4.5197,-4.5175,-4.5175,-4.5131,-4.489,-4.4829,-4.5026,-4.5024,-4.5022,-4.5021,-4.5021,-4.513,-4.5066,-4.5191,-4.5231,-4.5294,-4.537,-4.5343,-4.5423,-4.5452,-4.5498,-4.5445,-4.5272,-4.5246,-4.5226,-4.5175,-4.5449,-4.5449,-4.5449,-4.5449,-4.5281,-4.5268,-4.5391,-4.5457,-4.5519,-4.5508,-4.5649,-4.5666,-4.5673,-4.5689,-4.5647,-4.5579,-4.5559,-4.5545,-4.5518,-4.547,-4.5813,-4.5814,-4.5814,-4.5448,-4.544,-4.5563,-4.5571,-4.5619,-4.5661,-4.5793,-4.587,-4.5864,-4.5828,-4.5701,-4.5686,-4.5576,-4.5541,-4.5499,-4.5458,-4.5369,0,0]},{"header":{"parameterUnit":"m.s-1","parameterCategory":1,"la1":30.2992,"la2":30.254,"lo1":-89.0895,"lo2":-89.0443,"dy":0.0025,"dx":0.0025,"nx":19,"ny":19,"refTime":"2026-04-24T09:00:00:Z","depth":0,"parameterNumber":3,"parameterNumberName":"V-component_of_WINDS"},"data":[0,0,0,2.2038,2.2039,2.2069,2.2069,2.211,2.211,0,0,0,0,0,0,0,0,0,0,0,2.2032,2.2032,2.2038,2.2039,2.2069,2.2069,2.211,2.211,0,0,0,0,0,0,0,0,0,0,0,2.2031,2.2032,2.2032,2.2039,2.2069,2.2069,2.211,2.2086,0,0,0,0,0,0,0,0,0,0,2.2057,2.2052,2.2032,2.2032,2.204,2.2069,2.2069,2.2085,2.2088,2.2098,0,2.2108,0,2.211,2.2113,2.2114,0,0,0,2.2037,2.205,2.2057,2.2032,2.204,2.2069,2.2055,2.2087,2.209,2.2101,2.2108,2.211,2.2111,2.2114,2.2114,2.218,2.218,0,0,2.2036,2.2038,2.2055,2.2059,2.2055,2.2054,2.2056,2.2088,2.2096,2.2108,2.2111,2.2111,2.2114,2.2114,2.2179,2.218,0,0,0,2.2032,2.2037,2.2042,2.2057,2.2062,2.2055,2.2057,2.2094,2.2096,2.2111,2.2112,2.2114,2.2115,2.2179,2.2179,2.22,0,0,0,2.2031,2.2034,2.2042,2.2043,2.2062,2.2079,2.2062,2.2094,2.2097,2.2112,2.2114,2.2115,2.2178,2.2179,2.2198,2.2209,0,0,0,2.2029,2.2034,2.2039,2.2043,2.2056,2.2078,2.2082,2.2094,2.2098,2.2114,2.2115,2.2178,2.2179,2.2197,2.2206,2.2226,0,0,0,2.2027,2.2057,2.204,2.2074,2.2056,2.2091,2.2081,2.2108,2.2124,2.2114,2.2178,2.2179,2.2197,2.2205,2.2225,2.2242,2.2249,0,0,2.2065,2.2061,2.2081,2.2067,2.2106,2.2087,2.2129,2.2141,2.2141,2.2167,2.2168,2.2199,2.2206,2.2226,2.2295,2.2301,0,0,0,2.2094,2.2108,2.2118,2.2134,2.2146,2.2156,2.2163,2.2167,2.219,2.2155,2.2212,2.2216,2.2228,2.2235,2.2241,2.225,2.2184,2.2183,2.2183,2.215,2.2149,2.2182,2.2185,2.2201,2.2208,2.2221,2.2229,2.2222,2.2236,2.2243,2.2285,2.2295,2.2298,2.2308,2.2253,2.2253,2.2253,2.2253,2.2205,2.2225,2.2218,2.2247,2.2246,2.2271,2.2279,2.2274,2.2297,2.2279,2.2289,2.2269,2.2305,2.2313,2.2255,2.2255,2.2255,2.2254,2.2254,2.224,2.2249,2.2256,2.228,2.2299,2.2302,2.2324,2.2322,2.2321,2.2331,2.2338,2.2337,2.2336,2.2335,2.2335,2.2335,2.2335,2.2335,2.2335,2.2273,2.228,2.2299,2.2316,2.2326,2.234,2.235,2.236,2.2371,2.2368,2.2368,2.2359,2.231,2.2296,2.2338,2.2337,2.2337,2.2337,2.2337,2.2326,2.2314,2.2344,2.2355,2.2375,2.2393,2.2392,2.2414,2.2422,2.2433,2.2424,2.2388,2.2383,2.2379,2.2368,2.2425,2.2425,2.2425,2.2425,2.2354,2.2353,2.2383,2.2401,2.2418,2.2421,2.2454,2.2463,2.2469,2.2474,2.2466,2.2452,2.2448,2.2445,2.2439,2.2429,2.25,2.25,2.25,2.2386,2.2387,2.2415,2.2423,2.2439,2.2452,2.2483,2.2503,2.2508,2.2503,2.2478,2.2474,2.2451,2.2444,2.2436,2.2427,2.2408,0,0]}]]